Wetbulb
56.53 55.08 52.45 53.22 53.16 52.90 52.55 53.56 53.64 56.56 58.68 57.79 56.65 56.99 58.82 60.65 60.46 61.16 62.08 62.27 63.87 64.74 65.41 64.68 63.36 61.92 62.34 63.55 65.21 66.75 66.88 67.02 65.70 64.70 64.10 64.21 63.81 64.58 64.61 64.86 65.19 65.80 66.18 65.84
54.72 52.89 54.17 54.35 53.65 54.44 54.46 54.06 54.63 56.98 58.04 57.66 56.46 56.91 58.84 59.36 59.82 61.23 61.49 62.37 63.94 64.43 64.80 64.76 63.41 62.45 61.35 63.41 65.34 66.35 66.66 66.12 65.79 65.73 65.04 65.09 64.87 64.59 64.96 65.18 65.11 65.24 65.80 66.28
52.72 53.85 54.29 53.34 53.43 53.78 54.69 54.78 55.31 54.95 56.27 57.22 56.72 55.11 56.20 58.96 60.76 61.79 62.39 63.65 63.94 63.20 63.60 64.99 65.04 63.28 62.26 62.87 64.68 65.90 66.45 66.32 65.84 65.95 64.83 64.74 65.78 64.82 63.87 64.74 65.51 65.80 65.68 66.04
53.44 54.57 53.05 53.84 52.40 52.83 51.34 55.17 56.74 55.53 54.47 51.53 56.05 49.63 55.00 57.40 59.27 59.83 61.35 62.27 62.26 62.99 64.04 64.70 66.12 65.19 64.13 63.23 64.20 65.49 66.05 65.98 65.67 65.72 64.48 64.78 65.86 62.03 63.95 64.67 65.43 65.76 66.17 66.03
52.62 52.86 52.49 52.66 52.33 53.16 52.32 57.24 56.06 54.88 54.09 52.75 52.25 51.38 54.77 56.39 56.65 58.56 60.51 61.42 62.56 63.33 64.32 65.55 66.29 66.01 65.29 64.02 63.30 64.26 65.14 65.00 65.26 64.97 64.04 64.11 64.42 63.34 64.81 65.67 65.74 66.49 66.29 65.93
53.69 54.41 54.23 53.94 56.01 55.35 57.34 56.23 55.34 54.10 53.07 48.87 50.17 51.73 52.63 54.39 56.05 58.72 60.67 62.12 62.52 63.61 64.18 65.24 67.21 66.61 66.81 65.90 64.32 64.03 62.15 64.35 63.72 63.85 63.40 62.82 62.76 63.68 64.52 65.22 64.26 63.86 65.27 65.48
52.62 52.72 54.06 55.34 55.73 56.57 55.61 55.27 49.48 48.02 47.62 47.25 51.46 50.91 53.93 57.41 57.93 59.32 60.29 61.83 63.33 63.82 64.39 64.86 64.99 66.21 67.53 66.96 65.35 63.72 61.43 61.64 63.33 62.15 62.76 62.27 62.23 63.68 65.63 66.43 64.75 65.14 64.26 64.36
49.45 47.58 52.61 55.93 55.21 54.46 54.96 53.55 49.46 43.17 43.98 48.26 51.54 49.48 53.89 58.35 60.05 61.18 61.97 62.74 63.48 64.22 64.57 65.20 65.78 65.96 66.56 67.26 65.33 64.54 63.61 62.03 63.14 62.53 64.36 63.83 63.90 62.70 63.67 65.94 65.77 65.29 64.82 65.38
49.83 49.14 53.43 54.74 57.23 56.21 53.24 51.59 53.55 49.47 48.27 48.35 50.76 53.45 57.56 57.97 59.01 60.96 61.66 63.03 63.07 63.48 63.82 64.33 64.82 64.63 65.07 66.70 66.71 66.08 65.07 65.14 65.51 65.58 66.84 64.98 65.42 64.01 63.71 65.73 66.66 65.79 66.44 65.55
53.84 49.09 51.76 55.10 56.71 56.19 55.18 54.79 50.58 51.81 44.65 43.10 48.96 50.00 52.58 55.76 57.86 60.29 61.07 61.46 62.26 62.91 63.42 64.17 65.17 66.04 67.50 67.01 67.26 67.72 66.78 66.22 67.04 67.10 67.16 67.58 67.35 65.91 65.47 65.86 65.73 65.57 66.44 65.63
53.88 52.94 50.92 53.66 53.80 53.16 53.68 53.54 51.62 52.49 50.95 47.69 46.01 49.78 57.47 57.24 58.58 59.63 60.72 61.03 61.37 62.53 63.39 63.87 64.93 65.78 67.06 67.59 67.39 67.58 66.97 67.14 67.56 68.20 68.17 67.78 67.75 66.96 65.60 65.84 66.34 65.75 64.85 64.82
54.95 54.22 49.90 52.30 54.98 55.94 55.30 54.34 53.80 50.51 48.39 50.62 50.21 50.99 58.09 58.36 59.64 59.90 60.53 61.63 62.53 63.30 63.28 64.47 65.36 65.78 66.28 65.92 67.22 67.53 67.90 67.77 68.59 68.98 66.65 66.24 67.71 67.94 65.29 65.02 65.26 66.45 66.32 66.51
55.44 53.38 49.59 51.21 53.86 54.68 54.04 54.33 52.97 52.49 53.44 50.46 48.51 50.84 58.38 58.95 59.69 60.25 60.50 61.84 62.71 63.39 63.78 64.60 65.08 65.56 65.63 66.67 66.86 67.24 67.47 67.71 68.19 67.88 66.05 66.03 66.70 68.16 67.45 63.85 66.61 66.04 66.90 66.28
59.65 54.56 53.03 47.36 50.79 54.15 52.26 52.78 53.05 52.99 51.01 51.04 51.63 52.91 55.91 58.04 59.48 60.62 61.56 62.16 62.33 62.67 63.33 64.42 64.94 65.56 65.52 66.33 66.97 67.18 67.33 67.36 65.98 66.24 65.66 65.79 66.77 66.65 67.24 66.79 66.22 65.97 66.08 65.25
60.19 54.86 53.40 52.95 53.75 53.81 52.80 52.74 52.56 51.86 52.78 50.91 53.31 53.14 56.93 59.08 60.25 60.74 61.95 61.61 61.11 61.72 63.11 63.84 64.67 65.50 65.47 65.95 65.94 66.80 66.01 64.73 65.96 65.07 66.22 66.20 67.00 67.89 67.49 67.10 66.28 64.16 64.12 62.95
57.07 54.56 54.40 52.69 53.71 53.15 51.77 53.91 54.16 53.39 53.36 53.83 54.16 54.86 59.81 60.92 60.77 60.60 61.09 60.41 60.64 61.37 62.63 63.71 64.57 65.19 65.69 65.85 65.88 65.08 64.40 65.66 65.82 65.21 63.34 63.36 63.37 65.83 66.13 66.38 66.40 64.55 61.94 61.39
57.12 55.98 53.66 50.04 52.53 51.77 49.75 53.37 53.68 55.16 56.25 55.90 53.49 57.43 60.40 59.46 59.71 60.54 61.18 61.15 60.96 61.84 62.49 64.15 64.66 65.07 65.50 65.59 66.06 64.93 64.69 65.74 65.36 64.38 64.24 64.19 63.01 64.26 65.05 65.60 65.87 64.50 65.07 64.15
57.19 55.98 53.89 50.95 51.25 44.17 53.28 56.59 56.26 55.50 58.40 58.61 58.35 59.34 60.83 60.66 60.99 61.80 62.42 61.83 61.89 62.53 63.39 64.95 65.81 65.21 65.08 65.40 65.14 64.98 64.57 64.16 64.36 63.78 62.74 62.84 61.41 62.08 62.44 63.13 63.09 61.68 60.98 62.00
57.97 56.19 52.16 50.52 48.92 51.00 53.58 54.95 55.30 56.15 56.64 60.33 59.60 60.36 60.88 60.54 60.25 60.55 62.15 62.57 63.01 63.71 65.36 66.24 65.96 65.37 65.24 65.12 63.54 63.97 63.78 64.00 62.65 61.95 62.10 61.64 60.73 60.53 59.60 60.36 61.68 62.77 62.59 62.35
56.52 57.53 55.53 50.39 47.67 45.00 54.60 56.59 60.72 59.98 53.89 61.97 61.27 60.81 60.28 59.73 55.11 58.03 62.26 63.09 64.36 65.50 66.15 65.99 65.41 65.08 64.26 63.73 64.23 63.63 62.81 62.06 61.54 61.66 61.23 61.70 60.94 60.43 59.96 59.97 60.76 61.48 61.57 61.08
53.43 53.67 51.95 49.84 49.33 52.22 57.58 58.82 60.22 52.50 54.57 60.64 62.29 62.32 61.36 58.88 60.30 61.73 63.18 64.46 65.63 65.66 65.43 65.47 64.89 65.03 65.00 64.85 64.29 64.10 62.98 62.57 63.21 62.55 61.26 60.04 59.80 59.45 59.99 60.38 60.77 60.32 60.20 59.97
52.10 51.56 51.51 50.37 48.64 47.20 58.53 58.13 55.75 61.21 61.67 61.85 62.98 63.30 62.08 62.49 62.07 62.20 63.63 64.60 65.62 64.92 65.26 65.51 65.34 65.27 65.26 64.66 65.45 64.05 63.79 64.41 63.74 62.12 60.01 59.92 58.99 58.36 58.88 59.44 59.84 59.72 59.25 58.55
50.99 54.71 54.03 53.80 54.25 58.59 60.89 61.96 63.54 62.51 62.52 62.98 64.02 63.20 63.41 62.47 62.05 62.82 64.08 64.86 65.41 65.33 65.61 66.03 65.59 64.92 65.48 65.04 65.39 63.95 64.40 63.19 62.08 60.64 60.23 59.08 58.83 59.40 59.32 58.33 58.37 57.67 58.42 57.57
55.36 56.57 56.67 56.14 59.09 59.06 61.00 63.18 62.87 63.15 64.10 64.86 64.83 64.23 63.21 62.49 63.13 63.62 64.52 64.96 64.78 65.07 65.37 65.96 65.31 63.58 63.95 65.07 64.87 64.76 63.95 63.19 61.68 60.53 59.67 59.35 58.79 56.77 58.56 58.65 58.66 57.73 57.48 56.92
57.80 57.50 57.33 57.41 59.69 60.64 61.39 62.50 63.45 64.05 64.07 64.02 64.41 64.49 63.65 63.50 63.51 64.20 64.53 64.89 64.65 64.66 65.62 65.73 64.86 64.17 63.37 64.75 64.45 64.50 63.69 63.22 61.80 60.47 59.56 59.26 57.60 57.78 58.03 58.36 57.78 57.49 58.84 55.08
58.29 58.52 55.95 55.11 59.49 59.96 61.57 62.38 63.09 62.48 63.90 64.26 63.66 63.21 63.87 63.98 63.93 64.86 64.94 65.37 64.89 64.42 65.48 65.26 64.66 64.49 64.29 64.06 63.77 64.13 64.11 62.72 61.57 60.39 59.37 57.68 56.87 57.53 57.45 57.45 57.41 47.08 45.66 43.46
MSLP
1008.76 1008.52 1008.33 1008.42 1008.50 1008.60 1008.86 1009.26 1009.65 1010.27 1011.03 1011.05 1010.94 1010.83 1010.94 1011.40 1011.73 1011.83 1011.85 1011.80 1011.71 1011.50 1011.82 1012.27 1012.46 1012.50 1012.72 1013.04 1013.25 1013.62 1014.16 1014.90 1015.36 1015.77 1015.94 1016.17 1016.05 1016.38 1016.63 1016.94 1017.22 1017.42 1017.37 1017.64
1008.80 1008.41 1008.43 1008.40 1008.48 1008.62 1008.92 1009.18 1009.60 1010.28 1010.78 1010.87 1011.13 1010.56 1010.71 1011.19 1011.46 1011.56 1011.52 1011.34 1011.02 1011.00 1011.42 1011.96 1012.61 1012.90 1013.03 1013.31 1013.68 1014.07 1014.34 1014.90 1015.41 1015.78 1016.14 1016.14 1016.13 1016.25 1016.25 1016.41 1016.80 1017.08 1017.39 1017.56
1008.39 1008.18 1008.31 1008.28 1008.23 1008.48 1008.93 1008.88 1009.40 1009.93 1010.62 1011.17 1010.91 1010.44 1010.52 1010.80 1010.98 1011.00 1011.00 1011.07 1011.04 1011.18 1011.37 1011.67 1012.23 1012.90 1013.04 1013.50 1013.86 1014.12 1014.51 1015.28 1015.83 1015.95 1016.33 1016.60 1016.64 1016.39 1016.30 1016.24 1016.25 1016.42 1016.84 1017.20
1008.32 1008.16 1008.19 1008.05 1008.17 1008.55 1008.92 1009.24 1009.87 1010.38 1010.57 1011.11 1011.47 1010.45 1010.50 1010.73 1010.47 1010.65 1010.60 1010.70 1010.87 1011.12 1011.24 1011.28 1011.64 1012.40 1012.50 1012.98 1013.47 1013.70 1014.17 1014.58 1015.32 1016.05 1016.11 1016.12 1016.26 1015.64 1015.52 1015.89 1016.03 1016.04 1016.37 1016.67
1008.14 1008.08 1008.14 1008.06 1008.58 1008.77 1009.68 1009.76 1010.48 1011.15 1011.46 1011.84 1011.80 1011.28 1010.10 1010.38 1010.07 1010.37 1010.43 1010.60 1010.84 1011.01 1011.05 1011.01 1011.40 1011.93 1012.54 1013.13 1013.44 1013.99 1014.56 1015.76 1016.01 1016.09 1016.62 1016.61 1016.64 1016.10 1015.82 1015.66 1015.81 1015.85 1016.04 1016.25
1008.34 1008.41 1008.29 1008.16 1009.06 1008.99 1009.85 1010.10 1010.81 1011.48 1011.70 1011.64 1012.15 1011.68 1009.92 1009.98 1010.36 1010.25 1010.34 1010.26 1010.50 1010.69 1010.78 1010.82 1011.05 1011.57 1012.04 1012.59 1013.09 1013.58 1014.33 1014.90 1016.06 1016.24 1016.54 1016.62 1016.67 1016.63 1016.06 1015.49 1015.43 1015.55 1015.58 1015.98
1008.37 1008.05 1008.08 1008.31 1008.84 1009.54 1009.92 1009.86 1010.65 1011.24 1011.48 1011.44 1012.08 1011.55 1009.92 1009.86 1010.20 1010.34 1010.23 1010.11 1010.32 1010.45 1010.30 1010.30 1010.38 1010.63 1011.23 1011.70 1012.46 1013.03 1013.48 1013.52 1015.33 1015.54 1014.43 1015.32 1015.35 1016.02 1015.90 1015.46 1015.41 1015.29 1015.28 1015.33
1008.43 1008.14 1008.02 1008.34 1008.55 1008.93 1009.66 1010.15 1010.34 1010.60 1011.21 1011.22 1011.80 1010.81 1009.90 1010.22 1010.38 1010.27 1010.30 1010.26 1010.12 1009.88 1009.94 1009.99 1010.12 1010.46 1010.64 1011.34 1012.17 1012.80 1013.43 1013.73 1013.79 1014.05 1013.68 1014.32 1014.67 1014.53 1015.13 1015.22 1015.32 1015.20 1015.19 1015.26
1008.60 1008.37 1008.26 1008.45 1008.58 1009.10 1009.82 1010.30 1010.89 1011.26 1012.12 1011.43 1011.14 1010.60 1009.99 1010.09 1010.00 1009.99 1009.96 1009.90 1010.00 1010.11 1010.09 1009.90 1009.81 1010.28 1010.47 1010.86 1011.66 1012.24 1012.82 1012.87 1012.92 1013.02 1012.98 1013.18 1013.73 1013.98 1014.10 1014.49 1014.88 1014.76 1014.78 1015.07
1008.83 1008.79 1008.61 1008.63 1008.84 1009.55 1009.60 1010.58 1010.98 1011.04 1011.30 1011.05 1010.77 1010.50 1009.84 1009.85 1009.90 1010.11 1010.12 1010.28 1010.30 1010.27 1010.01 1010.03 1010.02 1010.26 1010.54 1010.90 1011.29 1011.53 1011.94 1012.21 1012.19 1012.30 1012.47 1012.46 1012.86 1013.30 1013.46 1013.96 1014.29 1014.50 1014.61 1014.78
1009.28 1009.36 1009.12 1008.98 1009.05 1009.38 1010.08 1010.30 1011.19 1011.43 1011.53 1010.95 1010.50 1009.85 1010.03 1010.18 1010.43 1010.64 1010.71 1010.80 1010.83 1010.54 1010.38 1010.40 1010.38 1010.30 1010.45 1010.82 1011.06 1011.50 1011.90 1012.06 1012.07 1012.02 1012.38 1012.73 1012.83 1013.01 1013.04 1013.26 1013.62 1014.00 1014.22 1014.48
1009.54 1009.83 1009.40 1009.17 1009.57 1009.89 1009.87 1010.20 1010.70 1010.87 1011.44 1011.36 1011.00 1010.31 1010.58 1010.76 1010.90 1011.00 1011.01 1011.10 1011.10 1010.94 1010.79 1010.58 1010.53 1010.40 1010.49 1010.72 1010.97 1011.43 1011.78 1011.81 1011.93 1011.96 1012.37 1012.57 1012.63 1012.52 1012.79 1012.73 1013.08 1013.48 1013.60 1013.79
1009.62 1010.06 1009.77 1009.56 1009.89 1010.03 1009.99 1010.46 1011.00 1011.38 1011.35 1010.96 1010.54 1010.19 1010.78 1011.06 1011.16 1011.34 1011.19 1011.19 1011.09 1011.03 1011.00 1010.81 1010.74 1010.85 1011.00 1011.05 1011.16 1011.34 1011.65 1011.90 1012.13 1012.20 1012.26 1012.22 1012.26 1012.25 1012.37 1012.64 1012.84 1012.97 1012.96 1013.32
1009.44 1010.01 1009.59 1009.36 1009.37 1009.68 1009.84 1010.28 1010.81 1010.98 1010.91 1010.42 1009.95 1010.13 1010.75 1011.11 1011.10 1011.26 1011.18 1011.21 1011.19 1011.18 1011.36 1011.31 1011.24 1011.29 1011.41 1011.55 1011.67 1011.78 1011.94 1012.20 1012.27 1012.20 1012.12 1012.17 1012.18 1012.20 1012.21 1012.42 1012.52 1012.52 1012.75 1013.02
1009.72 1009.92 1010.09 1009.89 1009.78 1009.67 1009.72 1009.91 1010.36 1010.54 1010.45 1010.31 1009.90 1009.98 1010.37 1010.84 1010.90 1011.09 1011.06 1011.24 1011.38 1011.28 1011.44 1011.59 1011.71 1011.81 1011.77 1011.88 1012.03 1012.18 1012.31 1012.34 1012.33 1012.28 1012.16 1012.14 1012.08 1011.95 1011.88 1011.90 1012.13 1012.48 1012.47 1012.67
1010.32 1010.38 1010.28 1010.12 1010.09 1010.04 1009.93 1009.90 1010.20 1010.18 1010.24 1010.18 1010.00 1009.91 1010.30 1010.72 1010.82 1010.90 1011.07 1011.33 1011.30 1011.45 1011.66 1011.87 1012.02 1012.16 1012.16 1012.24 1012.33 1012.53 1012.66 1012.53 1012.42 1012.39 1012.32 1012.16 1011.92 1011.55 1011.46 1011.52 1011.66 1012.11 1012.12 1012.30
1010.51 1010.48 1010.46 1010.32 1010.56 1010.47 1010.14 1009.44 1009.56 1009.75 1009.80 1009.67 1009.42 1009.27 1010.17 1010.51 1010.56 1010.72 1010.98 1011.17 1011.39 1011.72 1011.93 1012.07 1012.22 1012.40 1012.54 1012.62 1012.77 1012.77 1012.99 1012.94 1012.80 1012.70 1012.46 1012.27 1012.03 1011.75 1011.76 1011.81 1011.90 1012.04 1012.11 1012.50
1010.54 1010.84 1010.86 1010.83 1010.97 1010.50 1009.38 1009.68 1009.69 1009.53 1009.28 1009.34 1009.38 1009.53 1009.86 1010.11 1010.49 1010.66 1010.89 1011.14 1011.37 1011.74 1012.00 1012.14 1012.39 1012.57 1012.82 1013.02 1012.99 1012.94 1012.99 1012.84 1012.81 1012.84 1012.75 1012.57 1012.31 1012.06 1011.93 1011.86 1011.97 1012.21 1012.33 1012.32
1010.61 1010.86 1011.06 1011.04 1010.60 1010.07 1009.25 1009.56 1009.59 1009.31 1008.62 1008.69 1008.93 1009.36 1009.82 1010.32 1010.60 1010.54 1010.94 1011.32 1011.48 1011.78 1012.05 1012.29 1012.58 1012.82 1013.10 1013.14 1013.13 1012.98 1012.87 1012.84 1012.81 1012.94 1012.94 1012.80 1012.52 1012.26 1012.17 1012.16 1012.24 1012.26 1012.32 1012.38
1011.01 1010.95 1010.88 1011.19 1010.48 1009.52 1008.77 1009.07 1009.31 1009.28 1008.48 1008.02 1008.60 1009.18 1009.65 1010.12 1009.98 1010.01 1010.74 1011.14 1011.34 1011.78 1012.11 1012.34 1012.68 1012.98 1013.12 1013.22 1013.24 1013.02 1012.92 1012.76 1012.88 1013.00 1012.92 1012.72 1012.53 1012.38 1012.32 1012.35 1012.36 1012.39 1012.35 1012.29
1010.87 1011.09 1010.95 1010.85 1010.37 1009.40 1008.66 1009.16 1009.49 1009.22 1008.49 1008.08 1008.43 1008.89 1009.45 1009.64 1009.78 1010.35 1010.70 1011.03 1011.37 1011.68 1012.04 1012.44 1012.64 1012.71 1012.94 1013.16 1013.18 1012.93 1012.88 1012.84 1013.07 1013.07 1012.80 1012.70 1012.72 1012.66 1012.56 1012.55 1012.46 1012.33 1012.25 1012.20
1010.39 1010.75 1010.83 1011.06 1010.52 1009.56 1008.88 1009.60 1009.28 1008.24 1008.22 1008.26 1008.52 1008.80 1009.16 1009.46 1009.85 1010.30 1010.64 1010.90 1011.17 1011.44 1011.76 1011.94 1012.12 1012.48 1012.83 1012.94 1012.86 1012.66 1012.76 1013.00 1013.01 1012.94 1012.81 1012.74 1012.83 1012.77 1012.56 1012.36 1012.17 1012.17 1012.07 1011.91
1010.72 1010.68 1010.69 1010.82 1009.61 1009.34 1009.40 1008.58 1008.35 1008.50 1008.39 1008.36 1008.48 1008.65 1008.93 1009.30 1009.58 1009.93 1010.28 1010.60 1010.88 1011.15 1011.34 1011.48 1011.88 1012.16 1012.42 1012.56 1012.62 1012.50 1012.63 1012.88 1012.92 1012.91 1012.90 1012.84 1012.78 1012.59 1012.54 1012.44 1012.13 1011.83 1011.70 1011.53
1010.72 1011.00 1010.70 1010.50 1009.18 1008.95 1008.71 1008.54 1008.74 1008.60 1008.47 1008.32 1008.35 1008.44 1008.72 1008.76 1009.21 1009.55 1009.96 1010.14 1010.53 1010.88 1011.06 1011.35 1011.72 1011.90 1012.13 1012.36 1012.39 1012.40 1012.55 1012.61 1012.57 1012.62 1012.79 1012.80 1012.66 1012.61 1012.38 1012.11 1011.82 1011.62 1011.30 1011.01
1010.79 1010.93 1010.31 1009.80 1008.83 1008.44 1008.03 1008.07 1007.94 1007.93 1008.11 1008.12 1008.16 1008.17 1008.18 1008.56 1008.79 1009.04 1009.42 1009.68 1010.23 1010.54 1010.79 1011.14 1011.44 1011.77 1011.83 1012.06 1012.14 1012.24 1012.34 1012.43 1012.51 1012.50 1012.53 1012.60 1012.52 1012.41 1012.29 1012.00 1011.78 1011.49 1011.28 1011.62
1010.31 1009.78 1009.67 1009.11 1009.21 1009.14 1008.32 1008.13 1007.97 1007.71 1007.51 1007.68 1007.79 1007.92 1007.96 1008.15 1008.22 1008.61 1008.98 1009.32 1009.85 1010.12 1010.45 1010.92 1011.34 1011.49 1011.47 1011.62 1011.62 1011.80 1012.17 1012.33 1012.39 1012.39 1012.30 1012.23 1012.18 1012.05 1012.00 1011.83 1011.52 1011.51 1011.57 1011.60
Wind_Speed
4 2 5 10 4 2 5 3 2 1 2 3 3 4 4 5 5 4 1 1 2 4 2 3 6 4 3 5 9 11 12 10 9 7 7 5 6 6 6 6 8 8 7 7
2 2 2 6 1 3 3 4 3 1 1 2 4 8 5 5 0 3 4 3 4 6 4 4 2 1 3 6 8 9 11 11 9 6 4 2 4 4 4 5 6 8 7 7
3 2 2 2 4 4 2 7 6 2 1 4 7 3 2 2 3 5 3 3 2 8 6 3 1 1 5 5 8 10 10 9 8 7 4 3 1 2 4 5 6 8 9 9
5 1 3 8 2 3 7 4 3 6 3 3 5 4 1 1 7 2 2 2 4 7 6 4 3 2 5 6 9 11 11 11 9 8 5 6 5 7 4 3 3 3 6 9
3 3 3 7 3 3 3 7 9 5 4 4 3 4 2 2 5 6 3 2 2 3 5 6 5 2 1 5 8 9 8 5 6 6 5 4 6 7 4 3 4 3 5 8
6 2 4 1 5 4 12 15 9 3 1 4 2 2 3 4 4 5 4 7 6 6 6 6 3 1 3 5 5 6 7 6 2 2 3 6 8 10 7 6 4 4 5 5
3 1 2 2 6 3 3 7 3 3 3 3 1 5 5 5 3 4 9 11 9 7 8 8 6 6 6 7 8 9 8 10 5 7 11 9 9 10 11 8 5 5 5 6
2 4 1 3 1 3 7 1 3 5 4 1 3 4 3 3 10 8 7 9 8 11 11 10 8 7 9 5 8 9 7 9 11 12 13 8 10 8 8 8 6 6 6 6
4 4 1 2 2 1 4 5 3 6 1 3 1 3 5 1 4 7 8 9 11 12 12 13 14 11 9 2 9 9 10 10 13 13 12 9 9 9 8 10 9 7 6 5
4 4 0 2 4 9 2 6 2 2 4 3 2 4 2 3 5 8 11 13 14 13 14 13 12 11 8 4 9 11 12 12 13 14 11 8 8 8 7 7 10 9 7 7
5 2 1 2 2 1 4 3 5 2 3 2 2 2 4 3 3 7 9 10 9 10 12 11 10 10 8 3 5 8 9 11 12 13 8 7 5 6 6 6 7 8 6 7
3 4 3 1 2 3 1 1 3 3 4 0 3 2 3 3 0 2 7 8 8 9 10 9 10 11 11 9 3 3 6 8 9 7 6 7 6 5 5 5 6 8 9 10
8 2 2 2 3 3 3 2 3 4 0 6 4 2 3 3 6 6 7 7 8 8 11 10 10 10 10 10 8 6 5 5 5 6 6 6 6 6 6 4 6 7 6 7
7 3 3 5 1 1 2 3 3 3 3 3 7 4 5 5 5 5 6 6 7 7 8 8 8 8 7 8 8 7 6 6 8 5 5 6 7 7 7 8 5 6 2 4
2 3 2 1 2 4 3 5 6 8 5 6 5 6 6 6 5 4 5 5 5 7 7 7 7 7 6 7 7 6 5 6 7 6 6 6 6 6 5 5 3 3 3 2
2 3 2 2 3 1 4 6 6 7 4 7 3 5 4 4 4 4 3 2 5 6 6 5 4 5 6 7 6 5 5 8 6 7 7 7 8 6 4 4 4 6 5 4
1 5 4 3 3 0 7 9 9 3 5 4 7 3 9 7 5 3 2 1 4 5 5 5 3 5 6 7 6 6 6 6 7 6 6 8 9 9 9 7 3 3 5 2
4 4 1 3 3 4 2 1 3 6 6 10 3 8 11 5 4 3 2 3 3 3 4 3 3 4 4 5 5 6 6 5 6 6 7 7 7 7 7 6 5 3 1 2
2 4 3 3 4 4 5 5 6 6 5 12 10 10 8 5 3 3 4 2 2 2 1 2 3 3 2 2 4 5 5 5 6 6 6 5 5 5 7 7 6 4 3 3
6 4 2 3 4 6 4 3 5 4 7 12 12 12 10 7 4 1 6 3 2 2 1 1 1 1 1 1 3 2 3 3 5 5 5 4 4 4 5 5 5 4 4 5
3 2 3 3 4 7 5 6 5 4 3 4 13 12 11 7 4 3 4 4 4 4 3 4 2 2 1 2 2 2 1 1 3 3 4 4 5 5 5 6 4 5 5 6
3 4 3 3 3 7 8 7 8 1 1 4 12 12 12 9 6 7 7 7 7 6 5 3 1 1 2 3 2 2 1 2 3 4 4 4 6 5 5 5 5 4 5 6
3 3 1 7 4 1 8 4 3 1 1 4 11 9 11 11 10 11 10 9 8 7 6 4 3 2 2 3 3 3 1 3 3 4 5 5 5 5 5 5 5 5 4 6
3 3 3 2 2 7 10 11 10 6 8 5 10 11 13 13 12 12 10 10 8 7 5 4 4 4 3 3 4 4 3 3 3 4 5 5 6 7 5 5 4 4 5 6
2 5 4 5 10 9 11 12 12 11 12 10 9 12 14 13 14 13 12 10 8 6 5 5 5 5 4 3 4 4 4 4 4 4 4 5 4 5 6 5 5 5 5 5
6 4 3 6 6 5 7 8 8 9 10 10 11 11 12 15 15 13 11 9 8 8 6 5 6 6 5 4 4 3 4 4 4 4 3 4 5 5 5 6 7 7 10 10
Wind_Direction
26 299 357 342 315 162 151 162 217 126 82 280 331 282 261 304 292 263 201 341 245 324 9 27 15 17 87 151 168 167 164 161 159 162 184 196 208 196 201 216 232 223 225 219
248 219 290 320 143 141 142 179 203 224 359 309 2 310 316 349 2 264 325 329 24 19 40 45 4 60 132 163 174 173 180 169 178 177 179 210 210 211 219 215 227 226 226 219
243 287 288 344 342 257 257 229 182 269 101 98 320 256 11 49 316 325 315 244 30 17 344 342 14 83 128 167 189 190 186 183 193 198 177 191 167 194 200 209 217 212 214 210
257 211 308 329 305 213 292 298 156 142 178 328 353 331 142 349 317 3 345 263 360 357 344 296 335 196 147 179 197 201 194 193 192 208 218 223 242 237 221 234 238 218 202 199
276 255 275 306 14 226 3 111 104 89 58 313 42 286 46 339 57 33 77 40 3 3 350 344 339 342 86 164 207 214 199 180 212 212 264 270 276 274 274 221 240 220 197 194
278 311 250 62 49 115 139 104 93 95 23 266 46 316 319 3 6 332 303 305 310 328 333 316 285 195 192 192 173 195 176 223 222 167 288 264 277 280 270 255 242 225 208 199
308 281 287 149 111 174 181 159 126 205 235 281 184 222 283 293 327 315 323 330 342 329 335 335 313 278 240 200 182 165 172 178 174 204 209 214 219 258 268 271 259 241 215 209
322 180 211 122 291 221 171 264 212 209 202 314 170 240 92 351 316 296 309 325 336 360 0 353 341 320 298 216 188 183 170 174 178 214 228 215 228 206 243 257 257 251 248 247
176 256 319 63 115 263 150 214 68 108 36 251 2 254 260 54 40 26 17 4 2 2 360 355 349 2 351 192 185 183 183 195 203 218 233 199 212 207 225 245 249 250 247 234
187 268 43 82 143 61 249 118 192 119 167 234 221 276 258 310 15 17 10 1 357 4 16 19 15 18 34 127 183 191 194 204 214 229 231 214 207 205 201 227 245 245 244 232
141 224 187 244 19 316 161 178 68 92 309 216 236 209 192 195 39 9 14 26 29 33 31 27 27 30 37 65 192 207 204 213 222 235 229 238 225 210 186 220 241 247 242 233
159 140 219 89 10 282 330 134 177 261 190 256 315 246 54 250 353 29 69 57 49 36 25 25 21 22 28 25 2 246 224 232 244 257 261 244 239 242 220 209 225 229 237 230
175 184 166 147 176 167 249 124 88 92 238 206 230 168 27 146 116 73 71 57 54 28 25 21 17 16 19 14 11 348 292 298 313 326 306 291 282 288 257 262 257 242 233 224
111 137 202 249 179 104 221 194 168 191 225 174 235 151 144 146 126 105 95 64 35 17 24 14 10 10 18 7 8 353 352 343 335 342 339 313 296 287 290 267 250 234 250 256
157 165 180 191 245 199 222 237 186 209 225 252 347 215 157 174 150 120 94 57 21 10 20 9 4 0 360 2 5 353 355 356 355 8 7 350 308 280 269 266 300 236 171 186
12 143 154 186 349 251 275 265 255 249 236 235 224 214 167 184 176 135 107 49 8 2 6 4 359 355 351 355 354 354 356 4 16 20 32 24 12 12 334 284 256 177 178 176
67 147 170 204 36 283 271 259 231 214 202 203 226 225 165 191 179 158 182 25 343 348 345 351 354 344 348 355 353 11 14 21 18 13 12 1 2 11 20 22 8 290 264 304
129 109 55 111 138 227 335 265 283 250 251 214 219 172 181 170 149 171 186 284 325 348 335 356 347 350 2 3 16 13 17 26 38 33 15 10 21 35 31 37 49 66 92 258
59 132 116 220 204 308 245 201 196 207 274 208 211 180 178 129 187 214 194 235 296 324 326 347 349 355 358 38 12 2 21 42 40 30 21 15 12 26 21 15 2 356 333 319
86 76 265 157 248 280 290 174 179 173 272 198 193 179 171 170 222 264 191 202 169 171 164 203 205 120 174 187 346 7 48 57 26 6 354 347 2 0 351 345 340 334 312 305
129 102 229 190 249 275 232 161 175 206 313 187 190 183 171 197 197 119 171 181 200 180 187 174 151 84 219 230 262 356 58 341 340 309 322 341 355 339 333 321 313 312 312 308
205 174 211 140 231 267 145 131 214 172 158 234 195 189 191 201 188 204 204 203 193 198 199 192 142 178 192 216 243 11 307 318 290 312 320 341 346 336 328 307 308 302 291 289
226 257 316 220 246 4 239 319 233 101 265 214 201 193 197 199 210 204 208 202 204 210 207 197 241 261 213 218 233 286 237 285 316 324 340 339 323 316 315 314 316 310 308 298
182 165 237 279 183 255 245 258 251 256 250 267 222 194 194 205 210 208 212 202 209 212 209 210 236 256 260 228 232 245 269 255 282 318 330 327 323 333 329 327 331 324 317 318
44 162 222 249 274 275 252 245 262 252 243 247 224 214 210 211 215 211 213 204 211 211 200 207 225 242 263 273 274 261 260 258 275 302 315 330 330 329 330 331 312 319 327 324
188 192 237 292 354 307 312 336 323 249 248 227 219 218 222 216 221 210 216 201 203 204 196 209 226 236 251 275 297 290 271 264 273 292 324 337 308 324 323 323 326 221 244 283